Simultaneous Nadir Overpasses (SNOs) Predictions

Prediction of SNOs near equator between AQUA and NPP Satellite Orbit:

Table of predicted SNOs near equator for the next 14.0 days since TLE Epoch: 2/19/2022
Index Date (AQUA) Time (AQUA) AQUA Lat,Lon Date (NPP) Time (NPP) NPP Lat,Lon Distance(km) Time Diff (sec)
1 02/20/2022 16:25:23 3.85, -42.72 02/20/2022 16:16:02 3.72, -43.25 60.62 561
2 02/20/2022 17:13:30 0.69, 125.91 02/20/2022 17:05:25 0.84, 125.10 91.03 485
3 02/23/2022 07:54:47 -12.98, -96.40 02/23/2022 07:44:47 -13.02, -96.89 53.00 600
4 02/23/2022 08:41:16 2.01, 73.59 02/23/2022 08:32:26 1.85, 72.94 74.34 530
5 02/26/2022 00:08:53 -4.69, 21.31 02/25/2022 23:59:19 -4.58, 20.80 57.57 574
6 02/26/2022 00:57:07 0.06,-170.08 02/26/2022 00:48:49 -0.08,-170.86 88.09 498
7 02/28/2022 15:42:52 29.98, -36.27 02/28/2022 15:32:52 30.34, -37.02 81.75 600
8 02/28/2022 16:24:43 -2.76, 137.63 02/28/2022 16:15:41 -2.65, 137.00 71.56 542
9 03/03/2022 07:52:26 5.34, 85.34 03/03/2022 07:42:40 5.25, 84.85 54.88 586
10 03/03/2022 08:40:34 -0.85,-106.05 03/03/2022 08:32:03 -0.67,-106.79 85.41 511
